Dewpoint
59 59 59 59 60 60 61 62 62 62 62 62 62 61 61 61 60 60 60 61 61 61 61 61 62 62 63 63 63 63 63 63 63 63 63 63 63 63 63 63 63 63 62 62 62 62 62 62 62 61 61 61 61 61 61 60 60 59 59 59 59 59 59 58 58 57 56 56 56
57 58 59 59 59 59 60 60 61 61 62 62 62 62 62 62 61 61 61 61 61 61 61 61 62 62 62 63 63 63 62 62 63 63 62 62 63 63 63 63 63 62 62 62 62 62 62 62 61 61 61 61 61 61 60 60 60 59 59 59 59 59 59 59 58 58 58 57 57
52 53 54 55 55 56 56 56 56 56 57 57 58 59 59 60 61 61 62 62 62 62 61 61 61 62 62 62 62 62 62 62 62 62 62 62 62 62 62 62 62 62 62 62 62 62 61 61 61 61 61 61 60 60 60 60 60 60 59 59 59 59 59 59 59 59 59 58 58
50 50 50 50 51 51 52 52 52 52 53 53 54 55 55 55 56 57 59 60 62 62 62 61 62 62 62 62 62 62 62 62 62 62 62 62 62 62 62 62 62 62 62 62 62 62 61 61 61 61 61 60 60 60 60 60 60 59 59 59 59 59 59 59 59 59 59 59 59
47 48 48 49 49 50 50 50 50 50 51 51 51 52 53 53 54 55 55 56 57 59 61 62 62 62 62 62 61 61 62 62 61 61 62 61 62 62 62 62 62 62 62 62 62 62 62 61 61 61 61 61 60 60 60 60 60 60 59 59 59 59 59 59 59 59 59 59 59
46 46 47 47 47 48 48 49 49 49 49 49 49 50 50 51 52 52 52 53 53 55 56 59 60 61 61 61 61 61 61 61 61 61 61 61 62 62 62 62 62 62 62 61 61 61 61 61 61 61 61 61 61 61 61 61 60 60 60 60 60 60 59 59 59 59 59 59 59
45 45 46 46 46 46 47 47 47 47 48 48 48 48 48 49 50 50 51 51 51 52 52 54 55 57 59 61 61 61 61 61 61 61 61 61 61 62 62 62 62 62 61 61 61 61 61 61 61 61 60 60 60 61 61 61 60 60 60 60 60 60 60 59 60 59 59 59 59
44 44 45 45 45 46 46 46 46 46 46 46 46 47 47 48 48 49 50 50 50 50 50 51 52 53 55 56 58 59 60 60 60 61 61 61 61 61 61 61 61 61 61 61 61 61 61 61 61 60 60 60 60 60 60 60 60 60 59 59 60 60 60 60 60 60 59 59 59
42 43 43 44 44 44 45 45 45 45 45 45 45 46 46 46 47 48 48 49 49 49 50 50 50 50 51 51 53 55 56 58 58 59 59 60 60 60 61 61 61 61 61 61 61 61 61 61 60 60 60 60 60 60 60 60 60 60 59 59 60 60 60 60 60 60 60 60 59
41 41 42 43 43 43 44 44 44 44 44 44 44 45 45 46 46 47 47 48 48 48 48 49 49 49 49 49 50 50 52 54 55 55 56 57 58 59 59 60 60 60 60 60 61 61 60 60 60 60 60 60 60 60 60 60 60 60 60 60 60 60 60 60 60 60 60 60 59
40 40 41 41 42 42 42 42 43 43 43 43 43 44 44 45 45 46 46 47 47 47 47 47 48 48 48 48 48 49 49 50 50 51 52 53 54 55 56 58 59 59 59 60 60 60 60 59 59 59 59 59 59 60 60 60 60 60 59 59 59 59 59 59 60 60 60 60 59
39 39 40 40 41 41 41 41 41 41 41 42 42 43 43 44 44 45 46 46 46 46 46 47 47 47 47 47 47 48 48 48 48 49 49 49 50 51 52 54 55 56 58 59 59 59 59 59 59 59 59 59 59 59 59 59 59 59 59 59 59 59 59 59 59 59 59 59 59
38 38 38 39 39 40 40 40 40 40 40 41 41 41 42 43 43 44 45 45 45 45 46 46 46 46 46 46 46 46 47 47 47 47 48 48 49 49 50 50 51 52 54 55 57 58 59 59 59 59 59 59 59 59 59 59 59 59 59 59 59 59 59 59 59 59 59 59 59
37 37 37 37 38 38 38 38 39 39 39 39 40 40 41 41 42 43 43 44 44 44 45 45 45 46 46 46 46 46 46 46 46 46 46 47 47 48 49 49 50 50 50 50 51 53 55 56 57 58 58 59 59 59 59 59 59 59 59 59 59 58 58 59 59 59 59 59 59
36 36 36 36 37 37 37 37 37 37 37 38 37 37 38 39 40 41 42 42 43 43 43 42 43 44 45 45 45 45 45 45 45 45 46 46 46 47 47 48 48 48 48 48 48 49 49 50 52 54 56 57 57 58 58 58 59 59 58 58 58 58 58 58 58 58 58 58 58
33 33 34 34 34 34 34 34 34 34 34 35 33 33 34 35 36 38 39 39 40 41 40 39 40 41 43 43 44 44 44 44 44 44 45 45 46 46 46 47 47 47 47 47 47 47 47 48 48 49 50 52 54 55 56 57 58 58 58 58 58 58 58 58 58 58 58 58 58
30 30 30 30 30 30 30 30 30 31 31 31 31 32 32 32 34 35 36 37 37 37 37 37 37 38 40 41 42 43 43 43 43 43 44 44 45 45 46 46 46 46 46 46 46 46 47 47 48 48 48 49 50 50 52 54 55 56 57 57 57 57 57 57 57 57 58 58 57
28 28 28 28 28 28 28 28 28 29 29 29 30 30 31 32 33 34 35 35 36 36 37 36 36 36 37 40 40 41 41 42 41 42 42 43 44 44 45 45 45 45 45 45 46 46 46 46 47 47 47 48 48 48 49 50 51 53 54 56 56 57 57 57 57 57 58 57 57
26 26 27 27 27 27 28 28 28 28 28 29 29 30 30 31 33 34 35 36 35 36 37 36 34 35 36 38 39 39 39 40 40 40 40 41 41 42 42 43 43 44 44 44 45 45 46 46 46 46 46 47 47 47 48 48 49 50 50 52 54 55 56 57 57 57 57 57 57
26 26 26 26 27 27 27 27 27 28 28 29 29 30 30 31 32 33 35 35 35 36 36 36 34 34 35 36 37 38 38 37 39 39 39 40 40 40 40 40 41 41 42 42 43 44 45 45 45 45 45 46 46 46 46 47 47 48 49 49 50 51 53 54 55 57 57 58 58
26 26 26 26 26 26 26 26 27 27 27 28 28 29 30 31 31 32 33 33 32 33 34 33 33 33 33 33 35 36 36 35 37 38 39 39 39 40 40 40 40 40 41 41 42 42 43 44 45 44 43 44 45 45 45 46 46 46 47 48 49 49 50 51 52 54 55 57 57
25 26 26 26 26 26 26 26 26 26 26 26 27 28 28 29 30 31 31 31 31 31 31 31 31 31 31 32 32 33 34 34 36 37 37 37 37 38 39 39 40 41 41 41 42 42 43 43 43 43 42 42 43 44 44 43 44 45 45 46 47 48 49 50 50 51 53 54 55
25 25 25 25 26 26 26 26 26 25 25 26 26 27 28 28 29 29 29 29 30 31 31 30 30 30 31 32 32 32 32 34 35 36 36 36 36 37 37 37 38 39 40 40 41 42 42 42 42 42 41 41 42 43 42 41 41 42 42 43 44 46 47 48 49 50 51 51 53
25 25 25 25 25 25 25 25 25 25 25 25 26 26 27 27 28 28 28 29 30 31 32 31 31 30 30 32 32 31 31 32 34 35 35 35 36 36 36 36 36 37 37 37 40 41 41 41 41 41 41 41 41 41 40 40 40 40 41 41 41 43 45 46 47 48 49 50 50
25 25 25 25 25 25 25 25 25 25 25 25 25 26 26 26 26 27 27 28 29 30 31 32 32 31 30 31 31 32 32 32 33 34 34 34 34 34 34 33 32 33 35 37 39 40 40 41 40 40 39 40 39 39 39 39 39 39 40 40 40 41 42 43 45 46 47 48 49
24 24 25 25 25 25 24 24 24 24 25 25 25 25 25 25 26 26 26 26 27 28 29 31 31 31 30 29 31 32 31 31 32 33 33 33 33 32 31 31 31 32 34 37 38 39 40 40 40 40 40 40 39 38 38 38 39 39 40 40 40 40 40 41 41 42 44 46 47
25 24 24 24 24 24 24 24 24 24 24 25 25 25 25 25 25 25 25 25 25 26 27 28 28 28 28 28 31 31 31 30 31 32 32 32 32 31 30 31 30 32 34 37 38 39 39 40 40 40 40 40 40 39 39 38 39 40 41 41 40 40 39 39 40 41 41 42 45
25 25 24 24 24 24 24 24 24 24 24 24 24 24 24 24 24 25 25 24 25 25 25 25 26 27 27 28 29 30 31 30 30 30 31 32 30 29 30 31 31 32 34 37 38 38 39 39 39 39 39 39 40 40 40 39 38 39 39 40 39 40 40 40 40 40 41 41 42
25 25 24 24 24 24 24 24 24 24 24 24 24 24 24 24 24 25 25 25 24 25 25 26 26 26 27 27 27 28 28 29 29 30 30 31 29 29 30 31 31 32 34 37 37 38 38 38 38 38 39 39 39 40 40 39 38 38 38 38 39 40 41 41 40 40 41 41 41
25 24 24 24 24 24 24 24 24 24 23 23 24 24 24 24 25 25 26 26 26 26 26 26 26 26 27 27 27 27 28 28 29 29 29 30 29 28 29 31 31 32 34 36 37 37 37 38 38 38 38 38 39 39 39 39 39 39 40 39 40 40 40 41 41 41 41 41 41
24 24 24 24 23 23 23 23 23 23 23 23 23 24 24 24 25 25 26 27 26 26 26 26 26 26 26 27 27 27 28 28 28 28 28 27 28 29 30 30 31 32 33 35 36 37 37 37 37 37 37 37 38 38 38 38 38 39 39 39 39 40 40 40 40 41 41 41 41
24 24 24 23 23 23 23 23 23 23 23 23 23 24 24 25 25 26 26 27 26 26 26 26 26 26 26 26 26 27 27 27 27 28 28 28 29 29 29 30 30 32 33 35 35 36 36 37 37 37 37 37 37 37 38 37 38 38 39 39 39 39 39 38 40 40 41 41 41
24 24 24 23 23 23 23 23 23 23 23 23 24 24 25 25 26 26 27 27 26 26 25 25 25 25 25 25 25 26 27 27 28 28 28 28 28 28 28 29 30 31 32 34 35 35 36 36 36 36 37 36 37 37 37 37 37 38 38 38 39 39 39 40 40 40 40 40 40
23 23 23 23 23 23 23 23 23 23 23 23 24 24 24 25 25 26 26 26 26 25 25 25 25 25 25 25 25 26 26 27 27 27 28 28 28 28 28 29 30 31 32 33 34 35 35 35 36 36 36 36 37 37 37 37 37 37 37 38 38 38 39 39 39 39 39 38 39
23 23 23 23 23 23 23 23 23 23 23 23 23 23 24 25 25 25 26 26 25 25 25 25 25 25 25 25 25 25 26 27 27 27 28 28 28 27 28 28 29 30 32 33 33 34 34 35 35 35 35 35 36 36 36 36 36 37 37 37 37 37 36 37 37 37 37 38 39
22 22 22 23 23 23 23 23 23 23 23 23 23 23 23 24 24 25 25 26 25 25 25 25 25 25 25 25 24 25 26 26 26 27 28 28 27 27 27 27 28 29 31 32 32 33 34 34 34 35 35 35 35 35 35 35 35 36 36 36 37 37 36 35 36 37 37 37 37
22 22 22 22 22 22 22 22 22 22 22 22 23 23 23 24 24 24 25 25 24 24 24 24 24 24 24 25 24 25 26 25 25 26 27 28 27 27 27 27 27 28 30 31 32 32 33 33 34 34 34 33 34 34 34 34 34 35 35 35 36 36 36 36 37 37 37 37 37
22 22 21 21 21 22 22 22 22 22 22 22 23 23 23 23 24 24 25 25 24 24 24 24 24 24 24 25 24 25 26 26 26 26 27 27 26 26 26 27 27 28 29 30 31 32 32 33 33 33 33 32 32 33 33 33 33 34 34 35 35 35 36 37 37 37 37 37 37
22 22 22 22 22 22 22 22 22 22 22 23 23 23 23 24 24 24 24 24 24 24 24 23 23 24 24 25 24 24 25 25 25 25 25 25 26 26 25 26 26 27 28 29 30 31 32 32 32 32 32 32 32 32 33 33 33 33 34 34 34 35 35 36 37 37 37 37 38
22 22 22 22 22 22 22 23 23 23 23 23 23 23 23 24 23 23 23 23 24 24 23 23 23 23 23 24 23 23 23 23 24 24 25 25 26 26 25 24 25 26 27 28 29 30 31 32 32 32 32 31 32 32 32 33 33 32 33 33 33 34 34 35 36 37 37 37 38
22 22 23 23 23 23 23 23 23 23 23 23 23 23 23 23 23 23 23 23 23 23 23 23 23 23 23 23 23 23 22 22 23 23 24 25 25 25 24 24 24 25 26 27 28 30 31 31 32 32 32 31 32 32 32 32 32 31 31 32 32 32 32 33 34 35 36 37 37